This is the latest recevied weather packets stored in our database for station/object W2JBO-5. If no packets are shown the sender has not sent any weather packets the latest 10 day(s).
| Time | Temp. | Humidity | Pressure | Rain* | Wind** | Luminosity | Snow |
|---|---|---|---|---|---|---|---|
| 1777951117 | 18.33° C | 76% | - | 0 mm | - | - | - |
| 1777950813 | 18.33° C | 76% | - | 0 mm | - | - | - |
| 1777950511 | 18.33° C | 76% | - | 0 mm | - | - | - |
| 1777950207 | 18.33° C | 76% | - | 0 mm | - | - | - |
| 1777949902 | 17.78° C | 76% | - | 0 mm | - | - | - |
| 1777949600 | 17.78° C | 80% | - | 0 mm | - | - | - |
| 1777949298 | 17.22° C | 79% | - | 0 mm | - | - | - |
| 1777948996 | 17.78° C | 80% | - | 0 mm | - | - | - |
| 1777948693 | 18.33° C | 79% | - | 0 mm | - | - | - |
| 1777948390 | 18.33° C | 74% | - | 0 mm | - | - | - |
| 1777948087 | 17.78° C | 73% | - | 0 mm | - | - | - |
| 1777947784 | 18.33° C | 75% | - | 0 mm | - | - | - |
| 1777947481 | 18.33° C | 74% | - | 0 mm | - | - | - |
| 1777947178 | 18.33° C | 72% | - | 0 mm | - | - | - |
| 1777946873 | 18.33° C | 71% | - | 0 mm | - | - | - |
| 1777946569 | 17.78° C | 73% | - | 0 mm | - | - | - |
| 1777946266 | 17.78° C | 75% | - | 0 mm | - | - | - |
| 1777945963 | 18.33° C | 77% | - | 0 mm | - | - | - |
| 1777945660 | 18.89° C | 76% | - | 0 mm | - | - | - |
| 1777945358 | 18.89° C | 73% | - | 0 mm | - | - | - |
| 1777945054 | 20° C | 68% | - | 0 mm | - | - | - |
| 1777944751 | 20° C | 65% | - | 0 mm | - | - | - |
| 1777944449 | 20° C | 65% | - | 0 mm | - | - | - |
| 1777944146 | 20° C | 64% | - | 0 mm | - | - | - |
| 1777943842 | 20° C | 63% | - | 0 mm | - | - | - |
* Rain latest hour (hover to see other rain measurements)
** Current wind speed in m/s (hover to see current wind gust speed)